カタログに戻る

COSMOS 2424

GLONASS

運用中ナビゲーションMEO
NORAD 29672·PAYLOAD·🇷🇺 Russia

打ち上げ Dec 25, 2006 から Baikonur Cosmodrome

Loading…

次のパス (今後24時間)

TLE

最新Source: Space-Track

元期: Sep 14, 2026, 12:14 UTC

1 29672U 06062C   26257.51026550  .00000021  00000-0  00000-0 0  9999
2 29672  64.6980 191.3305 0019334 176.1743 183.8435  2.13122867153487

AllMySatでCOSMOS 2424をリアルタイム追跡

Download on the App Store